SCP
0 0 0 0 0 0 0 0 0 0 0 0 0 0 0 0 0 0 0 0 0 0 0 0 0 0 0 0 0 0 0 0 0 0 0 0 0 0 0 0 0 0 0 0
0 0 0 0 0 0 0 0 0 0 0 0 0 0 0 0 0 0 0 0 0 0 0 0 0 0 0 0 0 0 0 0 0 0 0 0 0 0 0 0 0 0 0 0
0 0 0 0 0 0 0 0 0 0 0 0 0 0 0 0 0 0 0 0 0 0 0 0 0 0 0 0 0 0 0 0 0 0 0 0 0 0 0 0 0 0 0 0
0 0 0 0 0 0 0 0 0 0 0 0 0 0 0 0 0 0 0 0 0 0 0 0 0 0 0 0 0 0 0 0 0 0 0 0 0 0 0 0 0 0 0 0
0 0 0 0 0 0 0 0 0 0 0 0 0 0 0 0 0 0 0 0 0 0 0 0 0 0 0 0 0 0 0 0 0 0 0 0 0 0 0 0 0 0 0 0
0 0 0 0 0 0 0 0 0 0 0 0 0 0 0 0 0 0 0 0 0 0 0 0 0 0 0 0 0 0 0 0 0 0 0 0 0 0 0 0 0 0 0 0
0 0 0 0 0 0 0 0 0 0 0 0 0 0 0 0 0 0 0 0 0 0 0 0 0 0 0 0 0 0 0 0 0 0 0 0 0 0 0 0 0 0 0 0
0 0 0 0 0 0 0 0 0 0 0 0 0 0 0 0 0 0 0 0 0 0 0 0 0 0 0 0 0 0 0 0 0 0 0 0 0 0 0 0 0 0 0 0
0 0 0 0 0 0 0 0 0 0 0 0 0 0 0 0 0 0 0 0 0 0 0 0 0 0 0 0 0 0 0 0 0 0 0 0 0 0 0 0 0 0 0 0
0 0 0 0 0 0 0 0 0 0 0 0 0 0 0 0 0 0 0 0 0 0 0 0 0 0 0 0 0 0 0 0 0 0 0 0 0 0 0 0 0 0 0 0
0 0 0 0 0 0 0 0 0 0 0 0 0 0 0 0 0 0 0 0 0 0 0 0 0 0 0 0 0 0 0 0 0 0 0 0 0 0 0 0 0 0 0 0
0 0 0 0 0 0 0 0 0 0 0 0 0 0 0 0 0 0 0 0 0 0 0 0 0 0 0 0 0 0 0 0 0 0 0 0 0 0 0 0 0 0 0 0
0 0 0 0 0 0 0 0 0 0 0 0 0 0 0 0 0 0 0 0 0 0 0 0 0 0 0 0 0 0 0 0 0 0 0 0 0 0 0 0 0 0 0 0
0 0 0 0 0 0 0 0 0 0 0 0 0 0 0 0 0 0 0 0 0 0 0 0 0 0 0 0 0 0 0 0 0 0 0 0 0 0 0 0 0 0 0 0
0 0 0 0 0 0 0 0 0 0 0 0 0 0 0 0 0 0 0 0 0 0 0 0 0 0 0 0 0 0 0 0 0 0 0 0 0 0 0 0 0 0 0 0
0 0 0 0 0 0 0 0 0 0 0 0 0 0 0 0 0 0 0 0 0 0 0 0 0 0 0 0 0 0 0 0 0 0 0 0 0 0 0 0 0 0 0 0
0 0 0 0 0 0 0 0 0 0 0 0 0 0 0 0 0 0 0 0 0 0 0 0 0 0 0 0 0 0 0 0 0 0 0 0 0 0 0 0 0 0 0 0
0 0 0 0 0 0 0 0 0 0 0 0 0 0 0 0 0 0 0 0 0 0 0 0 0 0 0 0 0 0 0 0 0 0 0 0 0 0 0 0 0 0 0 0
0 0 0 0 0 0 0 0 0 0 0 0 0 0 0 0 0 0 0 0 0 0 0 0 0 0 0 0 0 0 0 0 0 0 0 0 0 0 0 0 0 0 0 0
0 0 0 0 0 0 0 0 0 0 0 0 0 0 0 0 0 0 0 0 0 0 0 0 0 0 0 0 0 0 0 0 0 0 0 0 0 0 0 0 0 0 0 0
0 0 0 0 0 0 0 0 0 0 0 0 0 0 0 0 0 0 0 0 0 0 0 0 0 0 0 0 0 0 0 0 0 0 0 0 0 0 0 0 0 0 0 0
0 0 0 0 0 0 0 0 0 0 0 0 0 0 0 0 0 0 0 0 0 0 0 0 0 0 0 0 0 0 0 0 0 0 0 0 0 0 0 0 0 0 0 0
0 0 0 0 0 0 0 0 0 0 0 0 0 0 0 0 0 0 0 0 0 0 0 0 0 0 0 0 0 0 0 0 0 0 0 0 0 0 0 0 0 0 0 0
0 0 0 0 0 0 0 0 0 0 0 0 0 0 0 0 0 0 0 0 0 0 0 0 0 0 0 0 0 0 0 0 0 0 0 0 0 0 0 0 0 0 0 0
0 0 0 0 0 0 0 0 0 0 0 0 0 0 0 0 0 0 0 0 0 0 0 0 0 0 0 0 0 0 0 0 0 0 0 0 0 0 0 0 0 0 0 0
0 0 0 0 0 0 0 0 0 0 0 0 0 0 0 0 0 0 0 0 0 0 0 0 0 0 0 0 0 0 0 0 0 0 0 0 0 0 0 0 0 0 0 0
0 0 0 0 0 0 0 0 0 0 0 0 0 0 0 0 0 0 0 0 0 0 0 0 0 0 0 0 0 0 0 0 0 0 0 0 0 0 0 0 0 0 0 0
Wind_Speed
11 13 14 16 16 9 9 13 14 17 20 22 24 28 31 31 31 31 30 29 28 26 24 22 20 16 9 9 9 8 7 6 5 5 3 3 7 8 4 3 5 2 3 5
8 6 9 14 12 9 9 8 13 17 20 23 25 30 31 31 31 30 28 28 29 28 25 22 20 16 6 6 7 7 6 6 5 5 5 5 7 3 2 4 5 3 5 7
5 7 15 8 2 5 8 10 13 17 20 24 32 31 31 31 29 25 26 26 26 25 22 20 16 9 4 5 6 6 7 7 8 7 7 6 4 0 3 6 6 4 5 7
6 9 6 3 3 6 11 14 16 17 20 26 29 29 29 25 23 25 25 23 21 18 16 16 9 5 5 5 6 7 8 8 8 7 5 4 5 7 6 5 5 5 6 6
4 7 13 5 3 7 16 24 13 18 26 27 29 27 20 20 24 26 24 18 17 14 13 9 8 7 6 7 7 7 8 8 8 7 4 4 7 6 4 4 5 5 6 6
2 6 7 3 3 8 13 13 16 25 25 26 27 22 19 23 25 24 22 18 16 13 11 11 10 8 8 9 9 9 9 8 9 9 6 6 6 5 4 3 4 4 4 5
6 7 9 7 8 11 12 20 26 25 23 22 18 22 25 24 23 23 21 19 15 13 13 13 11 10 10 10 10 10 8 8 8 9 8 7 5 5 4 4 3 2 3 4
4 6 8 4 11 12 19 22 22 20 20 20 21 21 21 21 20 20 19 17 15 12 12 12 12 10 10 10 9 8 7 7 8 8 7 6 6 5 5 4 3 3 3 3
7 9 11 13 17 18 17 18 19 18 17 17 18 17 18 18 17 18 17 15 13 12 11 11 12 12 11 11 10 9 8 8 8 8 8 7 6 5 4 4 3 3 4 3
10 12 13 16 19 16 13 15 17 15 13 14 15 16 16 15 15 14 14 14 12 12 11 11 11 12 12 12 10 9 8 8 8 8 8 7 5 5 4 4 4 4 4 4
11 15 16 13 14 14 14 14 15 14 11 12 13 14 14 13 13 12 12 11 11 10 10 11 11 11 12 12 11 9 8 8 7 7 7 6 5 5 5 4 5 6 5 5
10 14 14 17 17 13 12 13 12 11 12 11 12 12 12 11 11 11 11 11 11 10 10 10 11 12 12 12 11 10 9 8 8 8 7 7 7 6 5 6 9 9 9 9
12 13 15 16 11 9 11 11 10 7 9 10 10 10 11 10 11 12 11 11 11 11 11 10 10 11 11 11 11 10 10 9 7 7 7 8 7 7 8 7 7 7 9 11
12 11 10 7 9 10 9 8 8 6 6 7 9 9 9 9 10 10 11 11 10 10 11 11 11 11 11 11 11 10 10 10 8 7 7 8 7 7 7 7 8 8 9 10
5 6 9 9 9 8 7 6 6 6 7 7 8 8 9 8 8 9 9 10 9 10 11 11 11 11 12 11 11 10 9 9 9 7 7 7 7 6 6 7 8 8 8 8
10 8 6 7 9 8 7 6 6 6 7 7 7 7 7 6 7 7 8 9 10 10 11 10 11 12 11 10 10 10 9 11 10 7 6 6 6 6 6 7 7 7 8 7
5 7 7 9 9 7 5 4 5 6 6 6 6 6 6 6 7 8 9 9 9 8 10 11 12 10 10 10 9 8 7 8 9 6 6 6 6 6 7 7 8 8 8 9
5 6 5 5 5 5 3 3 4 4 5 5 5 5 6 8 8 9 9 9 9 9 10 12 11 9 10 10 7 7 6 6 6 6 6 7 7 6 7 7 8 9 9 11
4 3 3 1 1 1 2 2 2 3 3 4 5 6 6 7 8 8 9 9 10 11 11 12 11 10 10 12 10 7 7 8 8 7 7 8 8 8 8 8 9 10 10 9
2 2 2 3 4 3 2 0 0 2 4 4 5 5 6 7 8 8 9 8 9 10 11 12 10 7 7 9 11 8 8 9 9 8 8 8 8 8 9 10 10 9 9 9
3 2 3 4 4 4 3 2 2 3 3 4 5 5 6 7 8 8 8 8 10 13 13 14 11 8 7 9 9 8 9 9 8 8 8 8 9 9 10 10 10 10 9 9
2 3 4 5 5 4 4 3 3 3 3 4 5 6 7 7 8 7 7 7 10 13 10 10 11 11 11 11 8 9 10 10 9 8 9 9 10 11 11 11 10 10 10 9
2 3 4 5 5 5 4 3 3 3 4 4 6 7 7 6 6 7 8 9 10 11 9 10 16 19 17 10 9 10 11 11 10 10 10 11 11 12 12 13 12 12 11 10
4 5 6 6 6 5 4 3 1 1 2 2 4 5 6 6 5 6 7 10 13 13 9 11 17 19 16 9 10 10 11 11 11 11 12 13 12 12 12 13 13 12 11 12
6 7 7 6 5 4 4 3 2 1 1 2 4 5 5 5 6 7 8 8 11 12 10 14 18 18 12 10 11 12 12 11 12 13 13 12 13 13 13 13 13 13 12 12
6 6 5 4 4 4 3 2 2 3 3 2 4 5 5 5 6 7 7 8 10 11 10 10 12 13 11 12 13 14 13 13 14 14 15 14 15 15 15 15 15 14 12 11
6 6 6 5 4 3 3 3 3 3 3 3 3 4 5 6 7 7 8 8 8 9 10 10 11 13 13 14 14 14 13 14 16 18 16 16 16 16 16 16 14 13 12 12
Wind_Direction
281 293 289 280 284 289 266 275 277 295 307 316 330 333 331 325 322 319 318 320 320 320 319 317 322 325 322 326 341 347 1 357 3 359 3 91 80 75 93 98 84 78 74 75
283 299 296 281 281 278 281 289 287 299 307 329 326 329 327 324 320 319 323 324 321 319 317 318 320 326 337 344 348 357 13 7 2 4 3 27 58 64 106 108 99 102 74 64
312 333 307 294 110 325 319 313 303 304 319 330 326 330 326 320 319 328 327 323 318 314 313 317 327 348 11 5 1 14 19 13 10 10 6 7 5 273 108 94 103 102 74 64
308 324 299 41 343 336 320 310 310 316 330 329 324 325 318 319 334 331 323 323 319 314 314 319 353 30 35 25 21 22 20 11 3 0 359 17 36 42 54 80 91 83 67 55
318 308 299 326 76 355 330 310 328 338 330 328 325 320 318 343 336 324 323 320 320 320 321 348 23 30 33 34 28 25 20 9 356 342 345 66 61 45 46 79 85 77 69 54
289 294 287 341 17 332 314 304 352 335 331 333 326 320 329 335 329 327 327 325 333 348 8 28 28 25 31 29 21 13 11 5 359 355 21 48 50 41 37 66 87 85 67 41
262 269 276 312 333 324 310 319 331 330 334 330 321 313 318 328 339 346 349 354 10 26 30 26 22 26 31 22 10 359 3 8 11 8 18 27 33 33 27 28 34 33 21 11
259 262 284 346 319 318 316 319 322 331 330 325 318 317 326 336 346 354 359 8 22 30 29 24 19 21 24 17 0 356 3 15 17 16 17 13 18 23 16 357 336 315 306 321
256 273 306 311 305 308 321 319 326 325 328 331 327 332 338 343 349 354 0 8 18 26 26 22 18 17 17 9 3 7 14 20 18 17 19 8 8 12 7 355 341 326 318 325
279 280 292 303 304 319 328 323 324 328 334 339 332 338 343 349 355 357 1 7 12 18 20 18 16 17 14 10 7 15 19 19 16 15 13 14 6 6 4 357 343 334 325 318
268 291 301 297 323 335 327 329 329 333 345 346 342 346 351 353 357 359 360 5 10 11 13 16 15 17 15 11 7 8 14 12 10 8 4 359 359 353 343 346 336 325 322 312
292 315 316 309 327 344 334 333 334 338 346 351 354 349 352 355 356 359 360 1 4 7 9 10 12 14 11 10 8 5 359 6 2 355 351 345 339 338 340 336 334 328 322 316
282 300 305 304 322 343 331 334 331 346 347 345 354 355 354 354 355 357 358 360 1 2 4 6 8 9 5 359 359 359 351 346 349 348 344 337 334 332 329 330 324 318 323 323
282 294 299 314 322 330 334 335 329 341 347 350 350 353 355 357 358 2 358 357 1 2 0 357 357 0 357 352 351 350 344 337 339 339 339 333 332 330 328 327 327 326 328 323
288 276 292 305 316 332 336 339 333 339 347 355 355 355 356 359 359 357 354 354 355 358 355 350 350 351 349 345 343 342 338 336 335 339 342 335 333 332 331 330 326 322 322 321
311 308 298 311 327 333 333 340 335 338 347 354 360 359 357 359 357 356 355 352 347 346 346 341 340 343 345 344 340 339 341 342 343 347 343 341 339 337 336 330 323 319 316 317
311 311 317 320 329 329 331 340 335 335 344 358 359 353 358 358 357 356 350 346 341 339 345 341 332 338 343 341 341 344 342 343 345 344 343 334 333 336 332 326 320 314 313 314
270 274 277 288 308 316 331 359 346 347 353 352 354 3 9 1 350 340 337 336 343 346 354 343 339 359 348 346 358 347 340 337 336 337 333 330 338 331 328 326 323 322 321 320
282 284 279 292 36 32 58 11 350 3 4 8 16 19 10 355 341 333 334 342 351 348 344 337 347 355 351 350 360 344 338 334 330 327 321 324 323 321 325 325 330 330 326 322
262 229 197 127 103 101 110 97 13 49 34 27 22 13 1 353 347 345 343 348 352 336 332 337 343 335 346 352 349 339 332 327 321 314 310 311 313 317 318 324 330 327 322 320
261 206 179 148 131 115 90 62 65 67 44 28 24 5 345 347 353 353 352 350 345 342 344 338 336 327 350 351 336 328 326 325 318 308 304 303 304 305 307 311 316 316 319 322
209 193 175 150 140 117 86 75 77 74 51 33 19 360 352 355 353 354 358 346 335 344 347 335 332 348 6 350 331 325 323 320 315 307 302 300 298 297 299 300 300 302 309 311
158 153 137 131 125 118 109 93 74 54 41 26 13 3 356 349 351 350 345 343 334 344 348 334 338 346 358 345 329 324 321 317 312 307 301 295 291 291 292 291 291 293 295 298
121 112 107 108 121 131 127 123 108 65 37 12 14 4 355 350 349 352 334 329 332 339 339 330 336 339 341 330 322 318 315 311 306 300 295 294 291 287 285 286 287 288 288 287
116 117 124 136 140 129 128 148 163 121 67 36 22 10 4 352 339 336 335 329 332 334 333 332 335 335 330 319 314 311 309 303 297 295 294 289 283 280 279 278 277 279 280 281
131 132 132 127 122 130 140 147 103 62 42 34 25 10 359 350 340 338 334 333 332 332 330 326 324 323 319 314 311 309 303 297 294 288 284 279 276 275 274 273 272 273 272 271
126 130 130 126 128 138 138 120 93 67 46 28 21 10 359 352 346 346 341 337 335 330 326 322 319 315 312 309 306 301 298 296 294 293 289 283 280 278 276 273 272 269 268 268